Flag for U.S.A. Weather past 2 weeks in Menominee, Michigan, U.S.A.

Now
64 °F

Clear.


Feels Like: 64 °F
Forecast: 57 / 70 °F
Wind: 13 mph from Southwest

Location: Menominee Weather Reporting Station

Current Time: Sep 19, 2014 at 7:52:17 PM

Latest Report: Sep 19, 2014 at 7:15 PM


Visibility: 10 mi

Pressure: 29.78 "Hg

Humidity: 64%

Dew point: 52 °F

Location of MenomineeLocation

Historic Weather in Menominee — Graph

°F

Menominee temperature yesterday

Maximum temperature yesterday: 54 °F (at 12:55 PM)
Minimum temperature yesterday: 41 °F (at 6:35 AM)
Average temperature yesterday: 48 °F

Past Weeks' High & Low Weather Summary

 TemperatureHumidityPressure
High77 °F (Sep 7, 2:55 PM)94% (Sep 4, 6:55 PM)30.40 "Hg (Sep 4, 6:55 PM)
Low37 °F (Sep 12, 2:15 AM)39% (Sep 7, 3:35 PM)29.42 "Hg (Sep 10, 1:35 PM)
Average56 °F74%30.06 "Hg
* Reported Sep 4 6:15 PM — Sep 19 6:35 PM, Menominee, Weather by CustomWeather, © 2014

Note: Actual official high and low records may vary slightly from our data, if they occured in-between our weather recording intervals... More about our weather records

Advertising

Menominee weather history for previous 24 hours

 ConditionsComfort  
Time TempWeatherWind HumidityBarometerVisibility
6:35 PM
Sep 19
64 °FSunny.17 mph68%29.79 "Hg10 mi
6:15 PM64 °FSunny.14 mph68%29.80 "Hg10 mi
5:55 PM64 °FSunny.14 mph68%29.81 "Hg10 mi
5:35 PM66 °FSunny.13 mph64%29.81 "Hg10 mi
4:55 PM68 °FSunny.15 mph64%29.83 "Hg10 mi
4:35 PM66 °FSunny.13 mph73%29.85 "Hg10 mi
4:15 PM64 °FSunny.8 mph73%29.86 "Hg10 mi
3:55 PM64 °FSunny.17 mph73%29.83 "Hg10 mi
3:35 PM66 °FSunny.16 mph68%29.87 "Hg10 mi
3:15 PM64 °FSunny.20 mph73%29.88 "Hg10 mi
2:55 PM70 °FSunny.17 mph57%29.89 "Hg10 mi
2:35 PM70 °FSunny.23 mph53%29.90 "Hg10 mi
2:15 PM70 °FSunny.22 mph53%29.92 "Hg10 mi
1:55 PM70 °FSunny.21 mph57%29.93 "Hg10 mi
1:35 PM70 °FSunny.16 mph57%29.94 "Hg10 mi
12:55 PM68 °FSunny.16 mph60%29.98 "Hg10 mi
12:35 PM68 °FSunny.18 mph60%30.00 "Hg10 mi
12:15 PM66 °FSunny.16 mph68%30.01 "Hg10 mi
11:55 AM66 °FSunny.17 mph68%30.02 "Hg10 mi
11:35 AM64 °FScattered clouds.16 mph73%30.03 "Hg10 mi
11:15 AM64 °FPartly sunny.12 mph78%30.04 "Hg9 mi
10:55 AM63 °FPartly sunny.16 mph77%30.04 "Hg7 mi
10:35 AM63 °FOvercast.17 mph77%30.05 "Hg6 mi
10:15 AM61 °FOvercast.13 mph83%30.05 "Hg5 mi
9:55 AM59 °FOvercast.17 mph88%30.08 "Hg5 mi
9:35 AM57 °FLow clouds.12 mph88%30.08 "Hg5 mi
9:15 AM57 °FLow clouds.12 mph88%30.08 "Hg4 mi
8:55 AM57 °FLow clouds.9 mph88%30.10 "Hg3 mi
8:35 AM57 °FLow clouds.9 mph88%30.11 "Hg4 mi
8:15 AM57 °FLow clouds.14 mph88%30.11 "Hg4 mi
7:55 AM57 °FLow clouds.12 mph88%30.11 "Hg4 mi
7:35 AM55 °FLow clouds.9 mph94%30.11 "Hg4 mi
6:55 AM55 °FLow clouds.12 mph94%30.12 "Hg5 mi
6:35 AM55 °FLow clouds.12 mph88%30.12 "Hg4 mi
6:15 AM54 °FLow clouds.8 mph88%30.13 "Hg5 mi
5:55 AM52 °FLow clouds.8 mph94%30.13 "Hg7 mi
5:35 AM52 °FLow clouds.8 mph88%30.13 "Hg10 mi
5:15 AM48 °FPassing clouds.3 mph94%30.12 "Hg10 mi
4:55 AM46 °FPassing clouds.No wind93%30.12 "Hg3 mi
4:35 AM45 °FClear.No wind93%30.12 "Hg1 mi
4:15 AM45 °FClear.No wind93%30.12 "Hg1 mi
3:55 AM45 °FClear.No wind87%30.13 "Hg8 mi
3:35 AM46 °FClear.No wind87%30.13 "Hg9 mi
3:15 AM46 °FClear.3 mph93%30.14 "Hg10 mi
2:55 AM48 °FClear.3 mph87%30.13 "Hg10 mi
2:35 AM46 °FClear.3 mph93%30.14 "Hg10 mi
2:15 AM43 °FClear.No wind93%30.13 "Hg4 mi
1:55 AM45 °FClear.No wind93%30.14 "Hg7 mi
1:35 AM45 °FClear.No wind87%30.15 "Hg10 mi
12:55 AM43 °FClear.No wind93%30.15 "Hg7 mi
12:35 AM45 °FClear.No wind87%30.16 "Hg6 mi
12:15 AM45 °FClear.No wind87%30.16 "Hg7 mi
11:55 PM
Sep 18
45 °FClear.No wind87%30.16 "Hg8 mi
11:35 PM45 °FClear.No wind87%30.16 "Hg6 mi
11:15 PM45 °FClear.No wind87%30.16 "Hg3 mi
10:55 PM45 °FClear.No wind93%30.17 "Hg10 mi
10:35 PM45 °FClear.No wind93%30.17 "Hg9 mi
10:15 PM46 °FClear.No wind87%30.17 "Hg10 mi
9:55 PM48 °FClear.No wind82%30.16 "Hg10 mi
9:35 PM50 °FClear.3 mph76%30.16 "Hg10 mi
9:15 PM50 °FClear.6 mph82%30.15 "Hg10 mi
8:55 PM50 °FClear.6 mph82%30.15 "Hg10 mi
8:35 PM48 °FClear.6 mph82%30.15 "Hg10 mi
8:15 PM46 °FClear.No wind87%30.16 "Hg9 mi
7:55 PM48 °FClear.No wind87%30.15 "Hg10 mi
7:35 PM48 °FClear.No wind82%30.15 "Hg10 mi
Weather by CustomWeather, © 2014

See weather overviewHow to use our weather pages